Location: Gollag?dem
(17.1995°N, 80.7322°E)
Time: 08:12:04
(UTC+00:00)

Daily predictions for brighter satellites

Satellite Brightness Start Highest point End
(mag) Time Altitude Azimuth Time Altitude Azimuth Time Altitude Azimuth
Centaur D-1AR AC-39 2.6 12:16:26 10° SW 12:19:44 41° SSE 12:25:37 10° E
COSMOS 2455 3.0 12:17:24 10° SSW 12:23:24 86° WNW 12:29:26 10° NNE
CZ-4C R/B 3.4 12:15:31 10° NNW 12:23:45 60° ENE 12:32:50 10° SE
Meteor 1-26 Rocket 4.1 12:20:10 10° S 12:25:39 82° E 12:31:02 10° N
Cosmos 2278 4.2 12:22:36 10° S 12:27:53 40° ESE 12:33:09 10° NE
Cosmos 1867 3.7 12:23:31 10° N 12:28:48 52° ENE 12:34:02 10° SE
SPOT 1/Viking Rocket 4.3 12:29:45 10° SE 12:34:15 30° ENE 12:38:44 10° NNE
Cosmos 2084 Rocket 3.3 12:34:16 10° NNW 12:38:28 85° ENE 12:42:38 10° SSE
AQUARIUS 4.1 12:34:37 10° SSE 12:38:58 64° ENE 12:43:19 10° N
Helios 1A Rocket 2.9 12:35:59 10° NNE 12:39:11 40° E 12:42:23 10° S
NOSS 2-1 (E) 4.2 12:33:38 10° S 12:39:19 47° ESE 12:43:26 10° NE
Cosmos 2263 Rocket 2.8 12:34:56 10° N 12:40:00 33° ENE 12:45:02 10° SE
YAOGAN 1 3.8 12:37:14 10° ESE 12:40:13 19° ENE 12:43:13 10° NNE
CZ-2D R/B 2.8 12:38:27 10° S 12:41:33 77° W 12:44:39 10° NNW
Meteor 2-10 4.4 12:36:26 10° N 12:41:47 47° E 12:47:14 10° SSE
SAR-Lupe-4 3.6 12:38:46 10° S 12:42:18 84° WSW 12:45:51 10° NNW
SJ-6F 4.3 12:42:34 10° SSE 12:46:29 66° ENE 12:50:25 10° N
USA 81 4.0 12:41:45 10° N 12:46:57 65° E 12:52:09 10° S
Cosmos 2360 Rocket 2.9 12:43:27 10° SSE 12:48:24 32° ESE 12:53:00 12° NE
Meteor 1-5 Rocket 4.4 12:43:17 10° N 12:48:46 79° W 12:54:28 10° S
MOS 1 Rocket 3.4 12:45:23 10° S 12:50:05 88° WSW 12:55:06 10° NNW
NOSS 3-1 (C) 2.6 12:50:10 10° SSW 12:54:29 63° ESE 12:58:32 12° NNE
NOSS 2-1 (C) 3.7 12:49:53 10° SSW 12:55:39 88° ESE 12:59:35 11° NNE
Milstar 3 Cent rocket 4.4 12:46:15 10° WNW 12:55:52 63° NNE 13:17:41 10° E
PSLV R/B 4.4 12:53:40 10° SE 12:56:51 23° ENE 13:00:03 10° NNE
Cosmos 1538 Rocket 4.0 12:53:30 10° N 12:58:46 60° ENE 13:04:01 10° SSE
Cosmos 2227 Rocket 2.5 12:55:55 10° NNW 13:01:32 70° WSW 13:07:07 10° S
Cosmos 2219 Rocket 3.3 12:58:37 10° SSE 13:02:58 23° ESE 13:04:45 20° ENE
Cosmos 1536 4.3 13:05:40 17° ESE 13:05:40 17° ESE 13:07:04 10° SE
Cosmos 2333 Rocket 2.2 13:00:31 10° SSW 13:06:13 83° ESE 13:11:58 10° NNE
IRS-P3 4.4 13:02:55 10° S 13:08:13 73° WSW 13:13:31 10° NNW
Spot 4 Rocket 4.2 13:03:49 10° SSE 13:08:40 47° ENE 13:13:32 10° N
Cosmos 2322 Rocket 2.1 13:09:03 10° S 13:14:40 73° ESE 13:19:29 15° NNE
IUS-18 SRM-1 4.2 13:12:55 10° SSW 13:15:44 25° SE 13:18:04 20° E
H-II Stage 2 2.1 13:14:25 10° WNW 13:19:57 38° N 13:20:22 36° NNE
Delta 202 3.7 13:15:06 10° W 13:20:25 83° N 13:23:47 29° E
COSMO-SKYMED 1 4.4 13:19:02 10° NNW 13:22:33 28° WNW 13:26:05 10° SW
Cosmos 1812 Rocket 3.8 13:20:27 10° SSW 13:24:44 68° W 13:29:00 10° N
Cosmos 2221 3.0 13:22:53 10° SSW 13:27:01 59° W 13:31:08 10° N
Cosmos 1437 Rocket 2.3 13:25:26 10° S 13:28:59 87° E 13:29:50 49° N
H-2A R/B 3.4 13:27:56 10° NW 13:31:10 28° NNE 13:31:53 27° NE
Cosmos 1842 3.7 13:31:30 10° S 13:33:40 37° SSE 13:33:40 37° SSE
Meteor 1-14 Rocket 4.4 13:30:05 10° N 13:35:27 46° E 13:40:44 10° SSE
IRAS Rocket 4.1 13:31:34 10° SSE 13:37:01 69° ENE 13:42:27 10° N
Cosmos 2333 4.1 13:34:18 10° SSW 13:40:00 86° ESE 13:42:48 32° NNE
Cosmos 923 Rocket 3.9 13:34:57 10° N 13:40:03 59° ENE 13:45:08 10° SSE
Cosmos 2285 Rocket 4.3 13:34:22 10° SSW 13:40:36 67° WNW 13:46:13 13° N
BREEZE-M DEB (TANK) 4.4 13:40:39 10° WNW 13:45:03 33° SW 13:47:14 14° S
SL-16 R/B 4.2 13:41:04 10° SW 13:45:39 25° WNW 13:50:16 10° NNW
Meteor 1-19 Rocket 4.4 13:40:46 10° SSW 13:46:04 65° W 13:50:43 14° N
Atlas Centaur 2 3.1 13:43:42 10° WNW 13:45:36 18° NNW 13:45:36 18° NNW
Meteor 1-10 Rocket 4.4 13:42:01 10° SSW 13:47:33 70° W 13:52:12 16° N
Meteor 2-11 Rocket 4.5 13:42:24 10° N 13:48:32 78° W 13:54:38 10° S
Hubble Space Telescope 3.0 13:46:04 10° NW 13:46:54 14° NNW 13:46:54 14° NNW
Cosmos 192 4.2 13:45:24 10° SSW 13:50:19 87° E 13:50:57 68° NNE
Cosmos 2082 3.5 13:45:01 10° NNW 13:50:45 82° ENE 13:56:27 10° SSE
Palapa 6 Rocket 3.8 13:49:57 10° W 13:52:53 37° NW 13:52:53 37° NW
Cosmos 2315 Rocket 4.2 13:49:35 10° S 13:55:53 72° W 14:01:18 15° N
NOAA 6 4.1 13:52:41 10° S 13:57:46 72° WSW 14:02:50 10° NNW
ATLAS 5 CENTAUR R/B 2.5 13:55:39 10° WSW 13:56:33 24° WSW 13:56:33 24° WSW
Ariane H10+ 4.3 13:57:25 10° SW 14:01:04 15° SSW 14:02:15 13° S
NOSS 3-1 (A) 3.1 14:01:15 10° SSW 14:04:52 57° WSW 14:04:52 57° WSW
ATLAS 2A CENTAUR R/B 2.7 14:01:49 10° WNW 14:10:38 66° WNW 14:10:38 66° WNW
Palapa B4 Rocket 4.2 14:12:38 10° W 14:17:34 48° WNW 14:17:34 48° WNW
Intelsat 5-1 Rocket 4.4 14:21:26 10° WSW 14:22:15 16° WSW 14:22:15 16° WSW
Cosmos 1709 Rocket 4.4 14:32:50 56° SW 14:32:50 56° SW 14:37:55 10° S
Cosmos 2360 Rocket 4.4 14:28:10 10° WSW 14:32:13 20° WNW 14:34:48 15° NW
Cosmos 2219 Rocket 3.9 14:41:50 10° SW 14:46:31 28° WNW 14:46:31 28° WNW
Centaur D-1A AC-31 3.8 15:09:52 10° WNW 15:34:51 53° W 15:34:51 53° W
CZ-3 R/B 4.2 20:17:39 10° WNW 21:15:29 66° NNE 21:27:25 10° E
Aureole 1 Rocket 4.3 22:44:31 50° N 22:46:38 75° ENE 22:53:28 10° SSE
SL-16 R/B 2.5 22:43:00 10° S 22:48:48 76° SSW 22:48:48 76° SSW
Cosmos 2180 Rocket 4.4 22:52:26 58° N 22:53:49 86° E 23:00:12 10° S
Meteor 2-3 Rocket 4.3 22:50:01 10° S 22:53:56 45° SSW 22:53:56 45° SSW
Cosmos 1428 Rocket 4.4 22:57:37 10° SSW 23:03:09 60° WSW 23:03:09 60° WSW
Cosmos 1980 Rocket 3.1 23:08:05 33° SW 23:08:05 33° SW 23:11:37 10° S
SJ-11-01 4.3 23:04:36 34° NNE 23:06:35 74° ESE 23:11:12 10° S
Aurora 2 Rocket 3.4 23:06:16 53° W 23:08:08 83° NNW 23:13:58 10° ENE
ATLAS 2AS CENTAUR R/B 2.6 23:03:01 10° SSW 23:10:13 72° WNW 23:17:14 10° NNE
Cosmos 1092 Rocket 4.1 23:05:15 10° S 23:11:32 78° E 23:17:46 10° N
Cosmos 44 4.1 23:07:34 10° S 23:11:40 44° ESE 23:15:57 10° NE
Cosmos 2142 Rocket 4.5 23:14:42 52° WNW 23:15:05 53° W 23:21:00 10° SSW
EPKM 4.1 23:16:51 19° NNE 23:16:51 19° NNE 23:17:52 10° NE
BREEZE-M DEB (TANK) 2.7 23:16:23 58° NNE 23:16:23 58° NNE 23:21:51 10° NE
Delta 2 Rocket 3.7 23:22:42 41° ENE 23:22:42 41° ENE 23:25:04 10° ESE
COSMOS 2455 2.7 23:20:36 39° NNW 23:22:58 77° WSW 23:28:56 10° SSE
SL-24 R/B 4.5 23:19:09 10° NNE 23:23:23 57° E 23:27:11 10° S
Cosmos 2369 3.7 23:25:36 44° NW 23:27:02 56° WSW 23:32:31 10° S
USA 59 Rocket 0.7 23:25:09 34° NNW 23:27:33 86° ENE 23:34:36 10° SSE
DELTA-4 R/B 4.5 23:08:05 13° WSW 23:27:57 61° S 23:32:26 10° E
UNK 3.6 23:26:47 10° S 23:31:18 63° WSW 23:32:56 38° NW
NOSS 2-1 (D) 4.2 23:29:00 30° NNW 23:31:38 84° ENE 23:38:34 10° SSE
deb Centaur AC-2 3.9 23:31:46 52° W 23:32:41 73° SSW 23:36:58 10° ESE
USA 276 3.3 23:33:29 15° SSW 23:35:38 38° SE 23:38:19 10° ENE
Tiangong -1.7 23:35:30 51° NNE 23:35:47 53° NE 23:38:55 10° ESE
Centaur D-1AR AC-48 3.5 14:02:37 10° SW 23:36:37 68° N 23:41:38 10° ENE
Cosmos 2360 Rocket 4.4 23:34:23 10° NNE 23:38:42 23° ENE 23:43:00 10° ESE
Centaur AC-119 3.7 23:42:04 21° N 23:42:50 22° N 23:46:03 10° ENE
Stardust Del rocket 3.3 23:46:07 33° WNW 23:47:46 56° NNW 23:50:47 10° ENE
Cosmos 1898 Rocket 4.1 23:46:54 28° WNW 23:48:40 35° W 23:53:26 10° SSW
NOSS 2-1 (E) 4.1 23:47:45 19° NNW 23:51:20 80° WSW 23:58:16 10° SSE
NOAA 12 4.1 23:48:48 10° N 23:53:51 52° WNW 23:58:54 10° SSW
Cosmos 405 Rocket 2.6 23:51:20 10° SSW 23:54:22 39° W 23:56:01 22° NNW
